Weather in Novoselye

Russia / Omsk Oblast     54°52′02″N   74°14′34″E
temp.,
°C
wind,
m/s
gust,
m/s
humid.,
%
clouds,
%
prec.,
mm/h
press.,
hPa
HPBL,
m
13 april, tue
tue1300:00+1nw410100100 0.8 1033243
03:00+1nnw49100100 0.0 1034256
06:00+1nnw4798100 0.1 1036218
09:00+1nw259919 0.0 1038163
12:00+1nw37100100 0.0 1039194
15:00+2wnw4510093 0.0 103976
18:00+2wnw35100100 0.0 103997
21:00+2wnw5799100 0.0 1039215
14 april, wed
wed1400:00+1wsw379639 0.0 1039130
03:00−1wsw48966 0.0 1037135
06:00−1wsw4109447 0.0 1036169
09:00+1wsw51297100 0.0 1035292
12:00+3wsw6139999 0.0 1033346
15:00+6wsw71286100 0.0 1030340
18:00+6w611855 0.0 1029293
21:00+3wsw48927 0.0 1029116
15 april, thu
thu1500:00+2w359490 0.0 102865
03:00+4w3496100 0.0 102750
06:00+4wsw4697100 0.1 102786
09:00+5wsw489712 0.0 1026188
12:00+11wsw58846 0.0 1024445
15:00+15w68675 0.0 10221242
18:00+14w48675 0.0 1021238
21:00+10wsw49885 0.0 1021148
16 april, fri
fri1600:00
03:00+8wsw479311 0.0 1018107
06:00+7wsw48925 0.0 1017117
09:00+10wsw5979100 0.0 1015299
12:00+14wsw685995 0.0 1014715
15:00+17w574828 0.0 10121287
18:00+16w354996 0.0 1011574
21:00+8ne7108999 0.0 1012375
17 april, sat
sat1700:00+7ne7109068 0.0 1010293
03:00+3ne71089100 0.1 1012562
06:00+1ne81196100 0.7 1013632
09:00−1ne71191100 0.6 1014624
12:000ne7874100 0.8 1015921
15:00+1ne5670100 0.1 10161053
18:000ne4574100 0.1 1016700
21:00−1e3584100 0.0 1016511